Location: Les Coudrans
(46.1056°N, 1.1158°W)
Time: 16:44:05
(UTC+00:00)

SPOT 3 Rocket - Pass Details

Date: 03 March 2021
Orbit: 778 x 795 km, 98.7° (Epoch: 15 April)

Event Time Altitude Azimuth Distance (km) Brightness Sun altitude
Exits shadow 20:18:41 54° 38° (NE) 960 3.8 -25.6°
Drops below altitude 10° 20:23:10 10° 353° (N) 2,373 6.3 -26.3°
Sets 20:25:31 0° 350° (N) 3,308 7.2 -26.7°
